Flag for Germany Weather past 2 weeks in Forchheim, Bavaria, Germany

Now
39 °F

Drizzle. Overcast.


Feels Like: 37 °F
Forecast: 37 / 42 °F
Wind: 3 mph from West

Location: Bamberg

Current Time: Dec 21, 2014 at 1:04:38 AM

Latest Report: Dec 21, 2014 at 12:00 AM


Visibility: 25 mi

Pressure: 30.29 "Hg

Humidity: 85%

Dew point: 35 °F

Location of ForchheimLocation

Historic Weather in Forchheim — Graph

°F

Forchheim temperature yesterday

Maximum temperature yesterday: 42 °F (at 3:00 PM)
Minimum temperature yesterday: 32 °F (at 7:00 AM)
Average temperature yesterday: 39 °F

Past Weeks' High & Low Weather Summary

 TemperatureHumidityPressure
High54 °F (Dec 19, 12:00 AM)100% (Dec 7, 3:00 AM)30.50 "Hg (Dec 7, 3:00 AM)
Low24 °F (Dec 9, 1:00 AM)62% (Dec 15, 3:00 PM)29.69 "Hg (Dec 12, 7:00 PM)
Average40 °F91%30.06 "Hg
* Reported Midnight between Dec 5 and Dec 6 — Midnight between Dec 20 and Dec 21, Forchheim, Weather by CustomWeather, © 2014

Note: Actual official high and low records may vary slightly from our data, if they occured in-between our weather recording intervals... More about our weather records

Advertising

Forchheim weather history for previous 24 hours

 ConditionsComfort  
Time TempWeatherWind HumidityBarometerVisibility
12:00 AM
Dec 21
39 °FDrizzle. Overcast.3 mph85%30.29 "Hg25 mi
11:00 PM
Dec 20
39 °FOvercast.3 mph85%30.27 "Hg43 mi
10:00 PM40 °FOvercast.5 mph85%30.24 "Hg43 mi
9:00 PM40 °FRain. Passing clouds.5 mph84%30.21 "Hg2 mi
8:00 PM41 °FLight rain. Overcast.3 mph84%30.17 "Hg25 mi
7:00 PM40 °FLight rain. Passing clouds.5 mph86%30.14 "Hg3 mi
6:00 PM41 °FOvercast.6 mph80%30.13 "Hg43 mi
5:00 PM40 °FOvercast.5 mph84%30.12 "Hg43 mi
4:00 PM40 °FLight freezing rain. Partly sunny.6 mph87%30.13 "Hg4 mi
3:00 PM42 °FLight rain. Overcast.6 mph76%30.13 "Hg28 mi
2:00 PM42 °FOvercast.5 mph75%30.14 "Hg37 mi
1:00 PM42 °FOvercast.5 mph70%30.16 "Hg40 mi
12:00 PM42 °FOvercast.5 mph72%30.20 "Hg40 mi
11:00 AM40 °FOvercast.6 mph80%30.22 "Hg31 mi
10:00 AM39 °FOvercast.6 mph82%30.23 "Hg31 mi
9:00 AM35 °FScattered clouds.2 mph89%30.25 "Hg34 mi
8:00 AM34 °FClear.3 mph92%30.24 "Hg25 mi
7:00 AM32 °FClear.2 mph92%30.25 "Hg15 mi
6:00 AM37 °FPassing clouds.3 mph85%30.23 "Hg31 mi
5:00 AM36 °FPassing clouds.3 mph88%30.22 "Hg31 mi
4:00 AM35 °FClear.2 mph91%30.23 "Hg37 mi
3:00 AM33 °FPassing clouds.1 mph93%30.22 "Hg22 mi
2:00 AM37 °FClear.1 mph84%30.20 "Hg28 mi
1:00 AM40 °FClear.2 mph76%30.18 "Hg40 mi
Weather by CustomWeather, © 2014

See weather overviewHow to use our weather pages